[[{"header":{"parameterUnit":"m.s-1","parameterCategory":1,"la1":30.2991,"la2":30.254,"lo1":-89.0895,"lo2":-89.0444,"dy":0.0017,"dx":0.0017,"nx":28,"ny":28,"refTime":"2025-12-29T09:00:00:Z","depth":0,"parameterNumber":2,"parameterNumberName":"U-component_of_WINDS"},"data":[0,0,0,0,0,0,0,0,0,0,0,0,0,0,0,0,0,0,0,0,0,0,0,0,0,0,0,0,0,0,0,0,0,0,0,0,0,0,0,0,0,0,0,0,0,0,0,0,0,0,0,0,0,0,0,0,0,0,1.9249,1.9249,0,1.9251,1.9251,1.9251,1.9233,1.9233,1.9232,1.9232,1.9233,1.9233,1.9234,0,0,0,0,0,0,0,0,0,0,0,0,0,1.9231,1.9232,1.9249,1.9249,1.9249,1.9251,1.9251,1.9251,1.9233,1.9233,1.9232,1.9232,1.9232,1.9233,1.9234,0,0,0,0,0,0,0,0,0,0,0,0,0,1.9236,1.9232,1.9249,1.9241,1.924,1.9251,1.9251,1.9251,1.9233,1.9233,1.9232,1.9231,1.9232,1.9233,1.9234,1.9253,0,0,1.9236,1.9236,0,0,0,0,0,0,0,0,1.9236,1.9237,1.9242,1.9241,1.924,1.9241,1.9245,1.9251,1.9234,1.9236,1.9232,1.9231,1.9236,1.9236,1.9238,1.9253,1.9253,1.9236,1.9236,1.9237,1.9237,0,0,0,0,0,0,0,1.9236,1.9237,1.925,1.9242,1.9241,1.9237,1.9237,1.9246,1.924,1.9236,1.9234,1.9235,1.9235,1.9238,1.9238,1.9253,1.9236,1.9237,1.9237,1.9237,1.9284,1.9284,0,0,0,0,0,0,1.9237,1.9237,1.925,1.925,1.9237,1.9238,1.9238,1.9242,1.924,1.9239,1.9235,1.9234,1.9237,1.9237,1.9238,1.926,1.9237,1.9237,1.9238,1.9283,1.9284,1.9285,0,0,0,0,0,0,1.9236,1.9238,1.925,1.9243,1.9244,1.9239,1.9243,1.9242,1.9244,1.924,1.9238,1.9239,1.9236,1.9237,1.9249,1.926,1.9238,1.9238,1.9282,1.9283,1.9284,1.9305,0,0,0,0,0,0,1.9236,1.9238,1.9245,1.9243,1.9245,1.9261,1.9244,1.9243,1.9245,1.9244,1.9242,1.9241,1.9236,1.9248,1.925,1.9261,1.9239,1.9281,1.9282,1.9284,1.9303,1.9307,1.931,0,0,0,0,0,1.9235,1.925,1.9245,1.9247,1.9253,1.9261,1.9262,1.9255,1.9246,1.9253,1.9251,1.9242,1.9259,1.925,1.9252,1.9262,1.928,1.9282,1.9284,1.9302,1.9306,1.9309,0,0,0,0,0,0,1.9252,1.925,1.9244,1.9259,1.9261,1.9258,1.9267,1.926,1.9264,1.9262,1.9253,1.9253,1.9267,1.9266,1.9256,1.9281,1.9268,1.927,1.9281,1.9285,1.9288,1.9288,1.9239,0,0,0,0,0,1.9258,1.9265,1.9262,1.9276,1.9277,1.9272,1.9275,1.927,1.9271,1.9272,1.927,1.9272,1.9277,1.9281,1.9286,1.9304,1.9303,1.9312,1.9315,1.9318,1.932,1.9329,1.9333,1.9291,1.9291,1.9291,0,0,1.9269,1.9269,1.9273,1.9279,1.928,1.9287,1.9272,1.9281,1.9287,1.9273,1.9284,1.9284,1.9285,1.93,1.9306,1.9299,1.9332,1.932,1.9322,1.9323,1.9331,1.9335,1.9339,1.9292,1.9292,1.9292,0,0,1.9293,1.9294,1.9305,1.9307,1.9308,1.9305,1.9308,1.9307,1.9306,1.9318,1.9308,1.9315,1.9325,1.9327,1.9329,1.9356,1.9348,1.9358,1.9374,1.9384,1.9387,1.939,1.94,1.9403,1.936,1.936,1.936,0,1.9307,1.9318,1.9312,1.9321,1.9324,1.9314,1.9325,1.9327,1.933,1.9332,1.9325,1.9339,1.9339,1.9354,1.9361,1.9363,1.9366,1.9357,1.9387,1.939,1.9393,1.9402,1.9405,1.9361,1.9361,1.9361,1.9361,0,1.9334,1.9343,1.9352,1.9356,1.936,1.9371,1.9366,1.9371,1.9367,1.9365,1.9377,1.9377,1.9383,1.9386,1.9381,1.9401,1.9397,1.9389,1.9375,1.9398,1.9406,1.941,1.9363,1.9363,1.9362,1.9362,0,0,1.9367,1.9369,1.9373,1.9375,1.9377,1.9383,1.9394,1.94,1.9404,1.9407,1.9416,1.9426,1.9419,1.9421,1.9417,1.9425,1.9447,1.9416,1.9416,1.9421,1.9469,1.9475,1.9479,1.9442,1.9443,1.9443,1.9469,0,1.9391,1.9409,1.9404,1.9422,1.943,1.9421,1.9431,1.9433,1.9432,1.9438,1.9437,1.9444,1.9434,1.9436,1.9444,1.9442,1.9456,1.9441,1.945,1.945,1.9449,1.9483,1.9489,1.9513,1.9472,1.9473,1.9473,0,1.942,1.9425,1.9444,1.9446,1.9449,1.9457,1.9463,1.9469,1.9472,1.9471,1.9475,1.9469,1.948,1.9468,1.9483,1.9472,1.9476,1.9476,1.9477,1.9477,1.9462,1.9483,1.9521,1.9524,1.9478,1.9478,1.9478,0,1.9441,1.9453,1.9466,1.9468,1.9471,1.9477,1.9479,1.9481,1.9485,1.9491,1.9493,1.95,1.9503,1.9508,1.9504,1.9496,1.952,1.9507,1.9519,1.9519,1.9523,1.9523,1.9561,1.9528,1.9527,1.9527,1.9527,0,1.9467,1.9479,1.9476,1.9484,1.9497,1.9493,1.9506,1.9507,1.9509,1.9517,1.951,1.9518,1.9513,1.9521,1.9518,1.9531,1.9533,1.9532,1.9531,1.9532,1.9532,1.9533,1.9531,1.9528,1.9528,1.9528,1.9528,0,1.9493,1.9491,1.9505,1.9507,1.9508,1.9518,1.952,1.9527,1.9527,1.9537,1.9539,1.9538,1.9546,1.9544,1.9553,1.9551,1.9567,1.9564,1.9566,1.9565,1.9577,1.9576,1.9617,1.9622,1.9586,1.9586,1.9586,0,1.9509,1.9518,1.9521,1.9527,1.9529,1.9537,1.9542,1.9539,1.9544,1.9549,1.9556,1.9564,1.957,1.9585,1.9584,1.9592,1.9588,1.9603,1.9589,1.9591,1.9588,1.9587,1.9588,1.9605,1.9605,1.9605,1.9606,0,1.9537,1.9537,1.9544,1.9551,1.9557,1.9563,1.9568,1.9572,1.957,1.9576,1.9585,1.959,1.96,1.9608,1.9615,1.9617,1.9611,1.961,1.9613,1.9614,1.9614,1.9614,1.9572,1.9609,1.9608,1.9608,1.9608,1.9608,1.9558,1.9566,1.957,1.9579,1.9583,1.9588,1.9595,1.9596,1.9604,1.9612,1.961,1.962,1.9625,1.9633,1.9636,1.9644,1.9639,1.9643,1.9644,1.9645,1.9647,1.9614,1.9645,1.9645,1.9645,1.9645,1.9645,0,1.9586,1.9589,1.9597,1.9604,1.9612,1.9607,1.9612,1.9618,1.9628,1.9633,1.9639,1.965,1.9659,1.966,1.9668,1.9674,1.9672,1.9677,1.9676,1.9676,1.9651,1.9647,1.9679,1.9679,1.9679,1.9679,1.9679,1.9679,1.9601,1.9614,1.9615,1.963,1.9633,1.9643,1.9647,1.9652,1.9656,1.9669,1.9676,1.9677,1.9681,1.9689,1.9697,1.9697,1.97,1.9706,1.9705,1.9681,1.9678,1.9675,1.9671,1.9707,1.9707,1.9729,1.9729,1.973]},{"header":{"parameterUnit":"m.s-1","parameterCategory":1,"la1":30.2991,"la2":30.254,"lo1":-89.0895,"lo2":-89.0444,"dy":0.0017,"dx":0.0017,"nx":28,"ny":28,"refTime":"2025-12-29T09:00:00:Z","depth":0,"parameterNumber":3,"parameterNumberName":"V-component_of_WINDS"},"data":[0,0,0,0,0,0,0,0,0,0,0,0,0,0,0,0,0,0,0,0,0,0,0,0,0,0,0,0,0,0,0,0,0,0,0,0,0,0,0,0,0,0,0,0,0,0,0,0,0,0,0,0,0,0,0,0,0,0,-7.984,-7.9842,0,-8.0021,-8.0023,-8.0025,-7.9948,-7.9943,-7.9939,-7.9935,-8.0114,-8.0123,-8.0131,0,0,0,0,0,0,0,0,0,0,0,0,0,-7.9422,-7.943,-7.984,-7.9842,-7.9844,-8.0021,-8.0023,-8.0026,-7.9948,-7.9943,-7.9938,-7.9933,-8.0111,-8.0122,-8.0132,0,0,0,0,0,0,0,0,0,0,0,0,0,-7.9603,-7.9432,-7.9839,-7.9827,-7.9828,-8.002,-8.0023,-8.0026,-7.995,-7.9943,-7.9936,-7.993,-8.0108,-8.0121,-8.0134,-8.0347,0,0,-8.0174,-8.018,0,0,0,0,0,0,0,0,-7.9593,-7.9618,-7.9827,-7.9828,-7.983,-7.9955,-7.9941,-8.0133,-7.9951,-7.9903,-7.9935,-7.9927,-8.0066,-8.0082,-8.013,-8.0355,-8.0363,-8.0175,-8.0183,-8.0189,-8.0193,0,0,0,0,0,0,0,-7.958,-7.961,-7.9911,-7.983,-7.9832,-7.9811,-7.9829,-7.9977,-8.0019,-7.9907,-7.9902,-7.9925,-8.0065,-8.0118,-8.0134,-8.0365,-8.0175,-8.0187,-8.0195,-8.02,-8.0773,-8.078,0,0,0,0,0,0,-7.9568,-7.96,-7.9905,-7.9917,-7.9693,-7.9824,-7.9844,-7.9921,-8.0017,-8.0026,-7.993,-7.992,-8.0098,-8.0119,-8.014,-8.0396,-8.0189,-8.0201,-8.0209,-8.0766,-8.0775,-8.0783,0,0,0,0,0,0,-7.956,-7.9596,-7.9898,-7.9757,-7.9794,-7.9838,-7.9925,-7.9928,-7.9981,-8.0035,-8.0041,-7.9976,-8.0094,-8.0121,-8.0296,-8.0401,-8.0207,-8.0219,-8.0757,-8.0769,-8.0779,-8.0909,0,0,0,0,0,0,-7.9548,-7.9594,-7.9676,-7.976,-7.9802,-8.0054,-7.9931,-7.9937,-8.0005,-7.9994,-8.008,-8.0088,-8.0091,-8.0277,-8.0309,-8.0416,-8.023,-8.0748,-8.0762,-8.0775,-8.0896,-8.0923,-8.0947,0,0,0,0,0,-7.9533,-7.9705,-7.9681,-7.9718,-7.9907,-8.006,-8.0084,-8.0086,-8.0013,-8.0096,-8.0131,-8.0085,-8.0384,-8.0295,-8.0331,-8.0443,-8.0742,-8.0758,-8.0774,-8.0884,-8.0918,-8.0946,0,0,0,0,0,0,-7.963,-7.9715,-7.969,-7.9894,-7.9971,-8.0046,-8.0151,-8.0121,-8.0218,-8.0204,-8.02,-8.022,-8.0401,-8.0439,-8.0339,-8.0654,-8.0552,-8.0576,-8.0623,-8.0655,-8.068,-8.0667,-8.0241,0,0,0,0,0,-7.9676,-7.9795,-7.9862,-8.0035,-8.0075,-8.0107,-8.0173,-8.0169,-8.0247,-8.0278,-8.0326,-8.0402,-8.0513,-8.0586,-8.0691,-8.0901,-8.0918,-8.0995,-8.1021,-8.1041,-8.1063,-8.1176,-8.1211,-8.0836,-8.0836,-8.0836,0,0,-7.977,-7.9831,-7.9906,-8.0056,-8.0115,-8.0237,-8.0134,-8.0267,-8.0357,-8.0298,-8.0467,-8.0504,-8.0588,-8.0782,-8.0869,-8.0819,-8.117,-8.1062,-8.1079,-8.1088,-8.1197,-8.1232,-8.1264,-8.0847,-8.0845,-8.0844,0,0,-8.0004,-8.0063,-8.0214,-8.0276,-8.0367,-8.0387,-8.0423,-8.0505,-8.0528,-8.0698,-8.0656,-8.0761,-8.0953,-8.1015,-8.1072,-8.1331,-8.1292,-8.1365,-8.1498,-8.1609,-8.1638,-8.1664,-8.1757,-8.179,-8.1385,-8.1386,-8.1386,0,-8.0109,-8.0294,-8.0295,-8.0432,-8.0499,-8.0453,-8.0605,-8.0664,-8.0784,-8.083,-8.0773,-8.1013,-8.1067,-8.1274,-8.1338,-8.1385,-8.1425,-8.1355,-8.1634,-8.1661,-8.1685,-8.1773,-8.1808,-8.1394,-8.1393,-8.1392,-8.1392,0,-8.0418,-8.0547,-8.0657,-8.0777,-8.0856,-8.1,-8.1022,-8.1101,-8.109,-8.1115,-8.1288,-8.1351,-8.1469,-8.1517,-8.1506,-8.1723,-8.169,-8.1634,-8.153,-8.1729,-8.1812,-8.1845,-8.1406,-8.1403,-8.1401,-8.1398,0,0,-8.0719,-8.0838,-8.0879,-8.0933,-8.1031,-8.1129,-8.127,-8.1387,-8.1455,-8.154,-8.1657,-8.1821,-8.177,-8.1835,-8.183,-8.1928,-8.2129,-8.186,-8.1861,-8.1907,-8.2372,-8.2413,-8.2452,-8.2104,-8.211,-8.2115,-8.2365,0,-8.096,-8.1211,-8.1216,-8.1445,-8.1563,-8.1521,-8.1644,-8.1717,-8.1744,-8.1847,-8.1876,-8.1993,-8.1917,-8.1956,-8.205,-8.2085,-8.2222,-8.2066,-8.2212,-8.2217,-8.2193,-8.2496,-8.254,-8.2772,-8.2397,-8.2402,-8.2406,0,-8.1276,-8.1374,-8.1615,-8.1696,-8.1746,-8.1857,-8.1965,-8.2064,-8.2144,-8.2157,-8.2231,-8.2212,-8.2354,-8.2247,-8.2442,-8.2336,-8.2396,-8.2422,-8.2431,-8.2444,-8.2324,-8.2517,-8.2846,-8.2881,-8.2457,-8.2453,-8.2449,0,-8.1471,-8.1662,-8.1832,-8.1879,-8.1978,-8.2057,-8.2101,-8.2175,-8.2246,-8.2339,-8.2384,-8.2492,-8.2552,-8.2635,-8.2645,-8.2566,-8.2842,-8.2735,-8.2855,-8.2856,-8.2915,-8.2911,-8.3259,-8.2954,-8.2953,-8.2953,-8.2952,0,-8.1741,-8.189,-8.1921,-8.2025,-8.2191,-8.2194,-8.2358,-8.2395,-8.2462,-8.2571,-8.2541,-8.2643,-8.2651,-8.2756,-8.2764,-8.2925,-8.2952,-8.2965,-8.2966,-8.2969,-8.2967,-8.3007,-8.2991,-8.2962,-8.296,-8.2958,-8.2957,0,-8.1987,-8.2014,-8.2195,-8.2275,-8.2298,-8.2417,-8.2484,-8.2582,-8.2607,-8.2746,-8.2779,-8.2817,-8.294,-8.2958,-8.3101,-8.3106,-8.3299,-8.3283,-8.3273,-8.3271,-8.339,-8.3379,-8.3776,-8.3828,-8.3489,-8.3492,-8.3495,0,-8.2158,-8.2272,-8.2364,-8.2437,-8.2486,-8.2603,-8.2675,-8.2682,-8.2758,-8.2859,-8.2946,-8.3065,-8.3161,-8.3359,-8.3398,-8.3507,-8.3493,-8.3624,-8.3509,-8.3508,-8.3495,-8.3488,-8.3499,-8.3646,-8.365,-8.3653,-8.3656,0,-8.2458,-8.2465,-8.2572,-8.2684,-8.2771,-8.2859,-8.2941,-8.3001,-8.3019,-8.3106,-8.3232,-8.3307,-8.3454,-8.3573,-8.3681,-8.3724,-8.3694,-8.3692,-8.3725,-8.3729,-8.3719,-8.3727,-8.3334,-8.3683,-8.368,-8.3678,-8.3676,-8.3675,-8.2671,-8.2771,-8.2852,-8.2972,-8.3035,-8.3113,-8.321,-8.3248,-8.3354,-8.3476,-8.3474,-8.3612,-8.3689,-8.3831,-8.3882,-8.3989,-8.3946,-8.3995,-8.4007,-8.4019,-8.4031,-8.3703,-8.4009,-8.4008,-8.4007,-8.4007,-8.4006,0,-8.297,-8.302,-8.313,-8.3248,-8.3342,-8.3307,-8.3396,-8.3477,-8.36,-8.3675,-8.3771,-8.3916,-8.4031,-8.408,-8.4193,-8.4269,-8.4258,-8.4299,-8.4293,-8.4303,-8.4063,-8.4023,-8.4306,-8.4306,-8.4306,-8.4306,-8.4306,-8.4306,-8.3136,-8.3304,-8.3321,-8.3519,-8.3568,-8.3705,-8.3759,-8.3831,-8.3891,-8.4055,-8.4152,-8.4184,-8.4248,-8.4366,-8.447,-8.4481,-8.4523,-8.4571,-8.4576,-8.4351,-8.432,-8.4291,-8.4253,-8.458,-8.4581,-8.4807,-8.4809,-8.4811]}]]